Lapse_Rate
7.1 5.7 4.3 5.4 5.5 5.2 5.3 5.4 5.4 5.3 5.3 5.5 5.4 5.3 5.3 5.4 5.7 5.8 5.8 5.8 6.0 6.3 6.6 6.8 6.7 6.8 6.6 6.1 6.2 6.3 5.8 6.0 6.1 6.4 6.7 6.5 6.8 6.9 6.8 6.9 8.1 7.6 6.8
6.5 5.8 3.7 5.0 5.3 5.3 5.3 5.2 5.2 5.1 5.1 5.3 5.4 5.4 5.6 5.5 5.6 5.8 5.8 6.1 6.1 6.3 6.5 6.4 6.5 6.6 6.2 6.2 6.1 5.6 5.4 5.3 5.3 5.3 5.6 5.5 5.7 6.5 6.7 6.8 6.8 6.7 6.3
6.1 6.2 4.7 4.7 5.0 5.1 5.2 5.2 4.9 4.9 4.9 5.2 5.5 5.5 5.6 5.7 5.6 5.7 5.9 6.1 6.1 6.2 6.2 6.3 6.3 6.2 6.0 5.5 5.3 5.3 5.1 5.0 5.0 6.0 8.0 9.3 7.0 6.4 6.2 6.1 6.2 6.3 6.4
7.2 5.9 5.9 4.4 5.1 5.1 4.9 5.1 4.9 4.9 5.0 5.1 5.3 5.5 5.6 5.8 5.7 5.8 5.9 6.0 6.0 6.0 6.0 5.8 5.8 5.4 5.3 5.2 5.0 4.8 4.7 4.7 5.7 7.2 9.3 9.2 9.1 6.7 6.5 6.4 6.5 6.3 6.3
8.2 7.4 6.3 3.9 4.7 4.7 5.2 4.7 5.0 5.1 5.2 5.0 5.3 5.4 5.6 5.7 5.9 5.9 5.7 6.0 5.6 5.5 5.4 5.3 4.9 4.9 4.9 4.9 4.8 4.7 4.4 4.6 6.1 9.1 9.5 9.3 8.8 7.1 6.8 6.9 6.5 6.8 6.6
8.8 8.9 4.1 3.8 4.5 4.3 4.9 4.9 5.0 5.0 5.1 5.1 5.2 5.3 5.7 5.6 5.7 5.6 5.4 5.0 5.1 5.0 4.9 5.0 4.9 4.7 4.6 4.6 4.6 4.4 4.3 5.6 7.9 8.1 8.5 7.8 8.8 6.4 6.3 6.0 6.2 6.5 6.4
9.6 7.8 4.0 3.8 4.5 4.6 5.0 4.8 4.8 4.9 5.2 5.2 5.1 5.2 5.6 5.6 5.7 5.3 4.9 4.9 4.9 4.8 4.9 4.9 4.8 4.6 4.6 4.7 4.6 4.3 4.6 6.2 9.5 9.5 8.5 8.3 7.8 6.5 6.3 6.2 6.3 6.5 6.6
9.7 5.8 5.2 4.3 4.7 4.7 4.9 4.8 5.1 5.0 5.4 5.0 4.8 5.3 5.5 5.5 5.3 4.8 4.8 4.9 4.8 4.9 4.8 5.0 4.8 4.8 4.7 4.7 4.5 4.0 5.1 6.9 9.4 9.5 9.4 9.4 6.8 7.1 6.8 6.3 6.1 6.3 6.5
9.6 5.3 7.1 6.3 5.9 4.9 4.9 5.1 5.1 5.7 5.5 5.4 5.0 5.2 5.3 5.2 4.9 4.9 4.8 5.1 5.1 4.9 4.7 4.9 4.9 4.7 5.0 4.6 4.2 4.2 5.2 6.3 9.5 9.4 9.5 9.3 7.4 7.0 6.5 6.3 6.1 6.2 6.3
7.6 6.0 7.9 9.1 8.1 7.3 6.5 5.5 5.8 6.1 6.0 5.5 4.9 5.1 4.8 4.8 4.8 4.7 4.8 5.1 5.2 5.0 4.8 4.6 4.7 4.6 4.4 3.9 3.6 4.3 5.1 6.4 9.0 9.3 9.3 8.5 7.1 6.8 6.3 6.3 6.2 6.2 6.1
6.6 5.5 8.2 9.0 8.7 8.8 8.7 7.7 6.1 6.0 5.3 5.4 5.0 4.7 4.8 6.6 6.3 5.6 6.6 4.8 5.0 4.9 4.7 4.6 4.6 3.5 2.7 2.8 3.2 4.2 5.7 9.3 8.7 8.9 8.8 6.7 6.7 6.6 6.2 6.1 6.1 6.0 5.9
6.8 6.0 8.1 9.1 8.6 9.2 8.7 8.2 8.6 7.7 6.9 7.0 6.9 6.0 7.7 7.1 7.4 8.4 5.1 4.6 4.6 4.6 4.5 4.5 3.5 2.9 4.2 4.8 3.9 4.6 8.6 8.1 8.6 7.8 8.7 6.9 6.7 6.6 6.2 6.1 6.2 5.9 5.6
8.2 7.3 7.7 8.0 8.8 9.3 9.4 9.0 8.6 7.9 8.1 7.6 6.4 6.9 6.5 6.9 6.4 5.6 5.6 6.6 4.9 4.6 4.4 3.6 3.7 6.2 6.2 5.2 5.6 6.5 6.7 7.5 8.2 7.6 6.2 6.8 6.7 6.6 6.3 6.2 6.0 5.5 5.5
6.9 7.2 6.7 7.8 8.0 8.9 9.4 8.8 7.4 6.7 6.4 5.4 5.3 5.0 5.6 6.1 5.3 5.5 7.3 6.4 4.5 4.3 3.1 4.6 6.2 6.3 6.4 5.7 5.8 6.6 6.9 6.2 6.5 6.9 5.3 6.1 6.6 6.3 6.2 6.0 5.9 5.8 5.7
4.9 7.8 6.2 7.5 7.9 8.4 8.9 7.2 6.6 6.1 5.9 5.4 5.1 4.6 5.1 5.1 4.9 5.8 5.7 4.7 3.9 3.3 4.6 5.2 5.9 6.3 6.9 5.2 4.8 5.4 5.5 4.7 4.2 4.0 5.2 5.3 5.7 6.6 6.1 6.0 6.0 6.0 6.0
3.3 6.6 6.3 6.9 8.1 7.6 7.6 7.4 5.9 6.0 5.7 5.3 5.1 4.5 5.5 4.7 4.6 6.2 5.7 4.1 2.6 3.3 5.2 4.4 5.0 5.4 6.0 4.7 4.5 4.6 4.5 3.6 3.8 4.0 4.3 6.2 5.4 5.6 6.6 6.4 6.0 6.1 6.2
2.9 3.0 5.8 6.0 7.5 7.6 5.9 7.1 6.1 5.1 5.4 5.5 4.9 4.7 4.7 3.8 4.2 4.9 4.4 3.4 1.9 2.5 3.3 3.3 3.3 3.3 4.0 3.9 4.8 4.9 3.8 3.2 3.1 3.4 4.1 6.6 6.3 5.8 5.7 6.4 6.4 6.2 6.5
2.9 2.6 1.6 6.0 6.2 7.1 7.0 5.3 5.4 6.3 5.6 5.4 5.0 4.9 4.5 3.0 4.4 5.1 3.7 3.0 1.3 1.8 2.1 2.4 2.7 2.9 2.8 3.3 4.6 4.0 3.7 2.1 2.2 2.7 3.1 4.5 5.4 5.7 5.7 5.9 6.6 6.7 6.7
1.7 1.1 1.3 2.8 6.4 6.9 6.7 5.9 4.7 4.9 5.8 5.0 5.1 4.9 4.0 3.5 3.4 4.1 4.3 3.9 1.8 1.5 1.9 2.2 2.1 2.8 2.1 1.8 1.9 1.8 1.3 1.2 1.6 2.7 4.0 4.1 4.2 4.4 5.1 5.9 6.2 6.6 6.8
0.7 -0.1 -0.3 1.4 5.8 6.9 6.6 5.6 4.9 4.8 5.0 5.0 5.2 4.4 3.7 3.3 3.6 3.5 2.7 2.6 3.0 1.8 1.9 1.9 2.1 2.1 1.9 1.3 1.5 1.3 1.4 1.5 2.0 3.0 3.8 3.4 4.0 4.0 3.8 6.2 5.8 6.3 6.0
0.1 -0.6 -1.3 -0.8 1.7 5.7 6.0 5.7 5.0 4.9 4.9 4.6 3.8 3.7 4.1 3.3 3.4 2.8 2.3 1.8 1.7 2.7 1.6 2.6 2.6 1.7 1.6 2.2 2.1 2.0 1.7 1.8 2.4 2.8 2.4 2.7 2.7 2.8 2.5 4.6 5.4 5.7 5.8
-0.3 -1.0 -1.8 -1.9 -0.7 2.1 5.6 5.1 5.3 5.3 4.8 4.7 4.0 4.0 3.7 3.3 3.1 2.3 2.2 2.2 2.1 2.6 2.3 2.5 2.0 1.7 1.9 2.4 5.0 5.2 5.0 4.1 2.4 2.4 1.6 1.4 1.6 1.8 2.2 2.5 5.4 6.3 5.7
1.2 -1.2 -1.8 -2.2 -1.2 0.5 1.8 5.5 4.7 4.6 4.9 4.9 4.7 3.9 2.9 3.5 3.2 2.8 2.9 2.1 2.3 2.5 1.8 2.4 1.8 2.8 2.4 2.4 6.3 8.2 6.0 7.7 3.2 1.8 1.8 0.4 0.8 0.4 0.1 1.4 4.3 5.4 5.4
1.7 -0.2 -2.1 -0.3 -0.7 -1.3 0.1 4.6 5.3 5.6 5.1 5.1 4.7 4.3 2.5 3.6 3.0 2.8 2.9 2.8 2.5 2.6 2.1 2.2 2.4 3.1 4.0 2.8 4.1 5.7 4.7 6.4 7.4 4.5 1.8 1.9 1.0 0.6 0.2 0.9 2.6 4.9 5.6
0.9 0.4 -1.1 -0.7 0.5 -2.0 -1.3 1.1 5.0 5.3 5.4 4.6 4.6 4.4 3.9 3.7 3.5 3.5 3.7 3.2 2.7 2.7 2.7 2.3 2.3 3.0 4.1 4.2 4.4 4.4 5.0 4.9 5.7 6.3 4.4 2.3 0.8 1.0 -0.1 0.2 0.6 1.8 5.2
0.6 0.2 0.1 -0.4 -1.1 0.8 -1.9 -1.3 0.8 2.8 5.3 5.1 5.1 5.2 4.1 3.4 3.5 3.6 3.6 3.4 3.3 2.7 2.7 2.1 2.6 2.8 3.0 4.2 4.2 5.3 5.9 6.1 5.8 6.2 5.8 2.5 2.7 1.7 0.7 0.6 0.2 0.7 2.6
Wind_Speed
14 22 23 23 21 20 18 18 21 22 22 22 21 19 18 18 17 16 17 17 18 19 22 21 22 23 23 24 22 22 22 22 22 21 22 22 21 22 20 19 22 23 23
18 25 24 25 23 20 18 18 20 21 21 21 21 20 19 19 17 17 17 18 18 19 22 21 21 23 23 22 22 22 22 22 21 24 25 22 19 19 20 21 22 21 21
21 26 27 25 24 23 19 19 19 20 20 20 21 20 19 19 18 17 16 17 19 20 22 22 22 22 23 23 22 21 21 20 17 19 19 20 19 19 21 20 21 20 21
21 26 28 25 25 22 22 20 21 22 21 20 20 19 19 19 18 17 17 18 19 20 22 23 22 21 21 20 20 20 19 18 16 14 17 18 19 18 19 20 20 21 21
21 25 26 26 26 23 23 21 20 20 19 20 20 19 19 18 18 18 18 19 20 21 21 21 21 20 20 19 19 19 18 16 10 10 16 16 17 17 18 19 19 20 21
21 24 25 26 26 24 24 22 22 21 21 22 20 19 19 19 18 19 20 21 21 21 20 20 20 19 19 18 19 19 17 15 12 15 15 13 16 16 16 17 19 20 20
20 21 26 25 26 24 26 23 23 22 21 22 21 19 20 19 19 19 20 20 21 21 19 20 20 19 18 18 18 17 14 8 13 14 12 14 15 16 17 16 17 19 20
19 16 24 24 24 25 24 24 23 22 22 22 21 20 20 20 19 21 20 20 20 19 19 19 19 19 18 17 16 15 14 11 12 12 11 11 13 14 16 15 16 19 19
17 12 19 25 24 22 23 23 23 22 22 23 21 21 21 21 21 21 20 19 19 19 19 18 18 18 16 16 14 13 14 5 12 12 13 12 13 14 16 15 17 20 20
11 11 16 24 25 26 24 24 24 23 21 21 21 22 24 24 22 21 21 19 18 18 19 19 18 16 16 15 14 14 13 7 13 12 11 11 13 14 16 16 18 19 19
8 10 16 16 22 24 24 22 23 24 23 22 23 25 26 21 22 23 19 21 20 19 19 18 17 16 16 15 14 14 10 8 11 10 11 13 14 14 16 17 17 18 18
14 11 16 17 17 22 21 23 24 23 23 22 22 24 22 21 21 20 20 24 24 22 20 17 16 17 13 11 11 10 7 9 8 10 12 15 13 14 15 16 16 16 16
16 15 15 17 18 17 14 20 17 18 19 18 21 20 17 17 18 17 19 20 18 22 16 15 13 11 11 10 8 8 9 9 8 9 9 12 14 14 13 15 16 17 16
15 16 13 16 14 16 17 13 15 13 13 12 18 18 17 13 15 15 16 16 15 14 14 13 10 10 10 11 9 9 7 6 6 6 8 10 14 14 13 13 15 17 16
14 20 15 16 16 15 15 10 11 8 11 14 17 19 19 13 9 16 14 16 13 14 14 12 11 11 11 11 9 7 7 7 6 5 6 8 9 11 11 12 15 16 16
14 15 16 16 18 17 15 16 8 12 14 13 15 16 19 16 14 15 13 14 12 14 13 13 12 11 10 11 8 8 6 6 5 5 3 6 5 8 10 11 13 15 16
14 15 13 18 19 19 14 13 8 10 13 12 12 17 18 17 18 17 12 10 12 12 13 12 12 12 9 9 8 8 6 5 4 4 3 3 6 7 6 11 13 16 17
14 14 15 13 17 18 16 10 6 13 13 13 14 15 18 18 18 17 9 8 13 13 13 10 7 7 7 7 6 5 5 4 3 3 2 0 2 4 7 10 13 16 17
14 14 13 13 19 18 16 10 8 10 8 12 15 16 17 19 19 13 12 12 17 11 9 8 7 8 7 6 6 4 4 3 2 1 1 2 2 3 5 9 12 14 15
14 14 13 11 14 18 13 10 8 8 7 13 11 13 18 18 20 15 12 14 15 7 6 6 9 6 6 7 6 5 3 2 1 1 2 3 4 5 6 9 13 14 17
16 16 15 14 12 9 10 10 8 9 9 9 8 16 17 18 19 16 11 13 13 10 9 9 8 9 4 6 6 4 2 1 2 2 3 3 4 5 7 7 9 10 16
16 16 15 15 14 10 8 9 5 9 8 9 8 13 18 19 21 16 12 10 9 8 11 11 10 5 3 8 5 5 3 3 3 3 3 3 5 6 7 8 11 13 13
17 16 15 16 15 13 9 8 4 5 6 7 9 10 12 19 19 18 17 12 11 10 9 11 11 12 6 7 9 4 4 6 3 3 4 3 4 3 5 7 11 14 16
16 16 15 15 15 14 11 4 10 8 6 6 8 8 10 18 17 19 19 17 13 9 11 11 9 9 9 10 6 6 4 4 5 3 3 4 4 4 3 4 8 14 19
15 15 15 13 14 18 12 10 7 9 6 3 6 9 10 12 16 19 20 17 13 10 12 14 13 11 9 10 9 7 6 4 4 3 3 4 3 5 3 5 5 8 18
13 13 14 15 12 16 13 13 9 5 11 6 8 8 8 8 9 12 16 14 15 12 13 13 14 14 12 10 10 10 10 6 7 4 3 4 5 3 3 4 5 7 10
Wind_Direction
169 168 174 170 165 154 151 144 146 143 141 141 138 134 130 125 121 119 122 120 119 117 118 119 120 116 110 109 108 102 96 98 101 103 98 96 95 100 106 111 104 94 93
160 165 171 168 166 157 153 146 146 145 144 142 142 139 137 132 129 126 126 126 126 119 116 117 115 112 113 111 105 102 98 97 99 98 97 93 93 96 92 86 94 100 92
161 165 171 167 167 154 154 148 146 145 145 145 144 142 140 139 135 130 130 129 127 124 120 117 116 111 108 106 107 105 103 101 104 123 123 104 103 99 102 102 102 98 97
161 161 172 169 169 165 153 154 151 151 150 147 147 148 145 143 141 136 130 128 124 122 116 113 110 107 108 109 112 111 108 106 117 142 108 111 109 108 108 107 105 101 101
163 164 168 167 171 167 163 160 157 156 153 150 152 150 146 143 142 138 133 124 120 116 110 108 110 113 113 114 117 115 113 116 128 123 114 119 111 111 108 110 110 106 104
169 167 155 168 172 169 168 163 162 161 164 155 152 151 150 145 142 138 125 121 118 113 112 120 120 118 118 118 120 119 118 128 143 110 105 106 111 111 107 108 109 113 114
174 163 164 168 170 170 169 167 167 166 164 153 154 153 148 145 142 135 125 125 121 120 125 127 126 122 119 120 122 120 120 138 117 115 116 114 112 119 116 116 121 125 114
177 157 170 169 170 167 167 171 165 166 161 155 153 150 148 145 142 132 131 129 127 131 129 128 125 123 120 125 125 121 121 122 119 113 113 111 120 122 123 116 115 124 120
175 166 169 174 174 168 170 171 167 165 154 153 152 150 144 143 142 138 135 132 133 133 129 125 123 122 127 124 122 125 129 145 127 119 118 119 128 125 126 124 117 127 124
160 173 172 174 177 177 177 178 168 160 150 149 148 145 144 143 141 138 137 135 136 133 127 124 123 129 129 122 118 130 128 148 124 127 115 127 127 125 127 126 126 124 118
177 177 174 177 179 180 175 180 165 155 154 154 153 152 151 155 155 152 154 143 139 130 123 121 129 118 111 110 116 127 162 144 141 137 128 136 133 128 126 126 125 121 121
185 182 182 183 180 181 177 177 179 172 169 171 169 165 169 162 160 162 143 137 133 126 121 124 120 126 131 130 124 141 144 157 148 133 127 144 137 134 134 133 131 127 129
203 190 196 183 183 179 181 178 181 177 176 171 170 171 165 160 150 147 147 148 133 131 131 126 138 151 150 143 150 147 152 150 149 133 119 148 141 139 138 140 141 135 137
229 201 201 182 189 186 180 183 180 176 170 165 170 167 163 156 155 153 161 151 144 144 141 154 160 152 152 148 144 147 141 135 124 123 121 145 148 148 149 150 146 144 145
289 213 191 183 194 186 188 180 176 175 177 170 169 169 170 161 159 161 156 158 154 150 163 155 155 151 148 137 138 135 122 97 92 100 109 123 130 155 153 159 158 158 154
319 248 194 192 198 187 188 183 176 176 177 175 174 173 171 165 160 167 165 157 150 158 164 158 154 152 144 141 130 130 114 89 78 77 95 146 143 149 179 179 176 172 165
317 299 229 195 195 190 177 187 182 170 175 180 175 175 169 162 167 164 164 156 148 149 154 154 146 142 137 138 137 145 115 93 79 77 45 147 178 187 183 190 194 186 179
324 315 316 200 197 196 184 173 167 185 184 177 180 179 172 160 172 166 161 155 146 148 157 158 152 143 138 143 147 132 119 94 66 60 56 192 196 210 208 212 211 193 191
335 331 317 288 197 198 189 175 177 192 186 175 180 181 172 166 162 161 165 155 155 151 159 160 153 149 149 138 128 112 90 66 38 337 208 220 250 255 249 210 210 199 190
348 349 341 329 225 197 186 170 182 182 199 174 182 180 172 167 163 157 150 153 160 150 158 159 149 142 145 137 126 112 107 98 308 262 247 271 267 257 261 246 196 192 189
2 354 356 351 335 233 192 182 189 184 189 185 193 175 174 166 165 160 156 159 160 166 162 160 143 137 127 148 120 106 90 106 200 243 258 256 255 257 260 249 197 191 202
358 344 360 351 334 314 200 189 187 191 193 193 185 180 172 169 170 163 164 161 162 167 166 168 157 152 124 187 167 155 168 192 223 229 243 248 252 251 249 242 209 199 186
355 346 355 349 332 319 320 186 169 184 199 189 185 187 175 173 174 167 169 166 171 172 177 176 175 174 156 204 211 194 169 213 152 199 232 242 253 249 244 245 200 191 176
349 349 349 357 336 335 330 210 187 197 195 196 187 184 185 173 173 172 173 174 179 181 179 183 186 188 171 180 212 227 278 125 192 189 225 231 242 238 233 243 215 193 182
354 353 349 351 1 339 357 333 208 208 210 180 184 186 182 185 181 181 181 180 182 189 185 183 186 195 195 184 201 185 211 198 209 168 184 200 245 232 227 235 218 216 187
354 355 355 343 13 341 357 350 50 14 207 184 191 198 193 182 182 186 183 184 187 187 190 189 189 194 198 200 198 201 204 192 196 182 176 191 210 218 222 239 232 221 195